TimeEST,TemperatureF,Dew PointF,Humidity,Sea Level PressureIn,VisibilityMPH,Wind Direction,Wind SpeedMPH,Gust SpeedMPH,PrecipitationIn,Events,Conditions,WindDirDegrees,DateUTC
12:15 AM,55.4,55.4,100,29.98,7.0,Calm,Calm,-,N/A,,Clear,0,2013-01-17 05:15:00
12:35 AM,55.4,55.4,100,29.98,7.0,Calm,Calm,-,N/A,,Clear,0,2013-01-17 05:35:00
12:55 AM,55.4,55.4,100,29.98,5.0,Calm,Calm,-,N/A,,Clear,0,2013-01-17 05:55:00
1:35 AM,59.0,59.0,100,29.98,7.0,South,3.5,-,N/A,,Clear,190,2013-01-17 06:35:00
1:55 AM,59.0,59.0,100,29.98,7.0,South,3.5,-,N/A,,Clear,190,2013-01-17 06:55:00
2:15 AM,59.0,59.0,100,29.98,7.0,South,3.5,-,N/A,,Clear,190,2013-01-17 07:15:00
2:35 AM,60.8,60.8,100,29.98,5.0,SSW,3.5,-,N/A,,Clear,200,2013-01-17 07:35:00
2:55 AM,60.8,60.8,100,29.97,7.0,Calm,Calm,-,N/A,,Clear,0,2013-01-17 07:55:00
3:15 AM,59.0,59.0,100,29.97,5.0,SSW,3.5,-,N/A,,Clear,200,2013-01-17 08:15:00
3:35 AM,57.2,57.2,100,29.97,5.0,South,3.5,-,N/A,,Clear,190,2013-01-17 08:35:00
3:55 AM,57.2,57.2,100,29.97,7.0,Calm,Calm,-,N/A,,Clear,0,2013-01-17 08:55:00
4:35 AM,55.4,55.4,100,29.95,0.8,Calm,Calm,-,N/A,,Mist,0,2013-01-17 09:35:00
4:55 AM,53.6,53.6,100,29.95,0.2,Calm,Calm,-,N/A,Fog,Fog,0,2013-01-17 09:55:00
5:15 AM,53.6,53.6,100,29.96,0.5,Calm,Calm,-,N/A,Fog,Fog,0,2013-01-17 10:15:00
5:35 AM,55.4,55.4,100,29.96,1.0,Calm,Calm,-,N/A,,Mist,0,2013-01-17 10:35:00
5:55 AM,55.4,55.4,100,29.96,1.5,Calm,Calm,-,N/A,,Mist,0,2013-01-17 10:55:00
6:15 AM,53.6,53.6,100,29.96,4.0,Calm,Calm,-,N/A,,Clear,0,2013-01-17 11:15:00
6:35 AM,55.4,55.4,100,29.97,5.0,Calm,Calm,-,N/A,,Clear,0,2013-01-17 11:35:00
6:55 AM,57.2,57.2,100,29.97,7.0,SSW,3.5,-,N/A,,Clear,210,2013-01-17 11:55:00
7:15 AM,59.0,59.0,100,29.97,7.0,SSW,4.6,-,N/A,,Clear,200,2013-01-17 12:15:00
7:35 AM,59.0,59.0,100,29.98,5.0,South,4.6,-,N/A,,Scattered Clouds,190,2013-01-17 12:35:00
7:55 AM,59.0,59.0,100,29.98,7.0,SSW,4.6,-,N/A,,Mostly Cloudy,200,2013-01-17 12:55:00
8:15 AM,60.8,60.8,100,29.98,7.0,South,5.8,-,N/A,,Scattered Clouds,190,2013-01-17 13:15:00
8:35 AM,62.6,62.6,100,29.99,4.0,South,5.8,-,N/A,,Clear,190,2013-01-17 13:35:00
8:55 AM,62.6,62.6,100,29.99,5.0,SSW,5.8,-,N/A,,Clear,200,2013-01-17 13:55:00
9:15 AM,64.4,62.6,94,29.99,7.0,SSW,4.6,-,N/A,,Clear,200,2013-01-17 14:15:00
9:35 AM,68.0,62.6,83,29.99,7.0,SSW,5.8,-,N/A,,Clear,210,2013-01-17 14:35:00
9:55 AM,69.8,60.8,73,29.98,5.0,South,6.9,-,N/A,,Haze,190,2013-01-17 14:55:00
10:15 AM,71.6,60.8,69,29.97,7.0,SW,6.9,-,N/A,,Clear,220,2013-01-17 15:15:00
10:35 AM,71.6,59.0,64,29.96,7.0,SSW,5.8,-,N/A,,Clear,210,2013-01-17 15:35:00
10:55 AM,73.4,59.0,61,29.94,7.0,South,6.9,-,N/A,,Clear,190,2013-01-17 15:55:00
11:15 AM,75.2,59.0,57,29.92,7.0,SSW,8.1,16.1,N/A,,Clear,200,2013-01-17 16:15:00
11:35 AM,77.0,59.0,54,29.91,7.0,South,11.5,18.4,N/A,,Clear,190,2013-01-17 16:35:00
11:55 AM,77.0,59.0,54,29.89,7.0,South,12.7,-,N/A,,Clear,170,2013-01-17 16:55:00
12:15 PM,78.8,59.0,51,29.87,7.0,South,10.4,16.1,N/A,,Clear,190,2013-01-17 17:15:00
12:35 PM,78.8,59.0,51,29.86,7.0,South,15.0,19.6,N/A,,Scattered Clouds,180,2013-01-17 17:35:00
12:55 PM,78.8,59.0,51,29.84,7.0,South,11.5,18.4,N/A,,Scattered Clouds,170,2013-01-17 17:55:00
1:15 PM,78.8,59.0,51,29.83,7.0,SSW,16.1,20.7,N/A,,Scattered Clouds,200,2013-01-17 18:15:00
1:35 PM,78.8,59.0,51,29.81,7.0,South,13.8,20.7,N/A,,Scattered Clouds,170,2013-01-17 18:35:00
1:55 PM,77.0,60.8,57,29.81,7.0,South,12.7,19.6,N/A,,Mostly Cloudy,170,2013-01-17 18:55:00
2:15 PM,77.0,62.6,61,29.79,7.0,SSE,8.1,-,N/A,,Scattered Clouds,150,2013-01-17 19:15:00
2:35 PM,77.0,62.6,61,29.78,5.0,South,10.4,18.4,N/A,,Haze,180,2013-01-17 19:35:00
2:55 PM,77.0,62.6,61,29.77,7.0,SSE,11.5,16.1,N/A,,Scattered Clouds,160,2013-01-17 19:55:00
3:15 PM,77.0,60.8,57,29.76,7.0,South,13.8,24.2,N/A,,Scattered Clouds,170,2013-01-17 20:15:00
3:35 PM,75.2,60.8,61,29.75,5.0,South,11.5,20.7,N/A,,Haze,170,2013-01-17 20:35:00
3:55 PM,73.4,59.0,61,29.76,5.0,South,11.5,-,N/A,,Haze,170,2013-01-17 20:55:00
4:15 PM,73.4,60.8,65,29.76,7.0,South,15.0,23.0,N/A,,Overcast,190,2013-01-17 21:15:00
4:35 PM,71.6,60.8,69,29.77,5.0,SSW,9.2,21.9,N/A,,Haze,200,2013-01-17 21:35:00
4:55 PM,71.6,60.8,69,29.77,5.0,South,10.4,-,N/A,,Haze,180,2013-01-17 21:55:00
5:55 PM,69.8,60.8,73,29.73,10.0,South,12.7,-,N/A,Rain,Rain,190,2013-01-17 22:55:00
6:35 PM,57.2,57.2,100,29.82,7.0,WSW,11.5,28.8,0.08,Rain,Rain,250,2013-01-17 23:35:00
7:35 PM,53.6,53.6,100,29.86,7.0,SW,13.8,20.7,0.11,Rain,Light Rain,230,2013-01-18 00:35:00
8:15 PM,50.0,46.4,87,29.88,7.0,WSW,10.4,20.7,N/A,,Scattered Clouds,240,2013-01-18 01:15:00
8:55 PM,48.2,44.6,87,29.91,10.0,West,8.1,18.4,N/A,,Clear,260,2013-01-18 01:55:00
9:15 PM,48.2,42.8,82,29.93,7.0,WSW,9.2,23.0,N/A,,Clear,250,2013-01-18 02:15:00
9:55 PM,48.2,41.0,76,29.96,7.0,WSW,9.2,16.1,N/A,,Scattered Clouds,250,2013-01-18 02:55:00
10:15 PM,48.2,41.0,76,29.96,7.0,West,13.8,23.0,N/A,,Overcast,260,2013-01-18 03:15:00
10:35 PM,46.4,41.0,81,29.97,7.0,West,11.5,21.9,N/A,,Overcast,270,2013-01-18 03:35:00
10:55 PM,44.6,44.6,100,30.01,7.0,NNW,9.2,23.0,0.02,Rain,Light Rain,330,2013-01-18 03:55:00